User: anonymous   Login
Location: Corralito
(10.2667°N, 66.9500°W)
Time: 10:03:45
(UTC+00:00)
Language:

deb Kosmos-1275 - Orbit

View from above orbital plane
View from above orbital plane
View from above satellite
View from above satellite

Ground track
Ground track

The orbit data is extracted from the following two-line orbital elements,

1 12767U 81053DL  24205.72531358  .00002237  00000-0  12653-2 0  9990
2 12767  82.9594 300.9242 0048650  14.4599 137.2382 14.09172433193639
Epoch (UTC): 23 July 2024 17:24:27
Eccentricity: 0.0048650
inclination: 82.9594°
perigee height: 827 km
apogee height: 897 km
right ascension of ascending node: 300.9242°
argument of perigee: 14.4599°
revolutions per day: 14.09172433
mean anomaly at epoch: 137.2382°
orbit number at epoch: 19363

The dashed part of the orbit path shows where the satellite is in the earth's shadow,  

DLR